This demonstration page uses our WeatherBlox Daily Observations layout. Learn more.

Left ArrowRight Arrow

38.80484, -77.04692

Hourly Observations for October 9, 2019

Temp ( °F °C ) Dew Point ( °F °C ) Humidity (%) Winds ( mph kmh ) Pressure ( in mb ) Visibility ( mi km ) Precip ( " mm )
12:52 am 00:52 Cloudy 64 17.8 44 6.7 48 48 NNE 13 20 30.19 1022 10 16 0.00 0.00
1:52 am 01:52 Cloudy 63 17.2 44 6.7 50 50 NNE 12 19 30.19 1023 10 16 0.00 0.00
2:52 am 02:52 Cloudy 61 16.1 46 7.8 58 58 N 13 20 30.19 1023 10 16 0.00 0.00
3:52 am 03:52 Cloudy with Light Rain 60 15.6 47 8.3 62 62 N 14 22 30.19 1022 10 16 0.00 0.00
4:52 am 04:52 Cloudy 56 13.3 51 10.6 84 84 N 12 19 30.20 1023 10 16 0.00 0.00
5:52 am 05:52 Mostly Cloudy 57 13.9 51 10.6 81 81 N 10 17 30.21 1023 10 16 0.00 0.00
6:52 am 06:52 Mostly Cloudy 58 14.4 50 10 75 75 NNE 13 20 30.22 1023 10 16 0.00 0.00
7:52 am 07:52 Mostly Cloudy 58 14.4 50 10 75 75 NNE 13 20 30.22 1024 10 16 0.00 0.00
8:52 am 08:52 Partly Cloudy 60 15.6 49 9.4 67 67 NNE 12 19 30.24 1024 10 16 0.00 0.00
9:52 am 09:52 Mostly Cloudy 63 17.2 49 9.4 60 60 NE 16 26 30.26 1025 10 16 0.00 0.00
10:52 am 10:52 Mostly Cloudy 65 18.3 50 10 59 59 ENE 12 19 30.26 1025 10 16 0.00 0.00
11:52 am 11:52 Mostly Cloudy 66 18.9 50 10 56 56 NE 9 15 30.25 1024 10 16 0.00 0.00
12:52 pm 12:52 Partly Cloudy 69 20.6 51 10.6 53 53 NNE 9 15 30.23 1024 10 16 0.00 0.00
1:52 pm 13:52 Mostly Sunny 71 21.7 50 10 47 47 N 10 17 30.20 1023 10 16 0.00 0.00
2:52 pm 14:52 Mostly Sunny 73 22.8 50 10 44 44 NNE 8 13 30.19 1022 10 16 0.00 0.00
3:52 pm 15:52 Partly Cloudy 72 22.2 50 10 46 46 NNE 9 15 30.18 1022 10 16 0.00 0.00
4:52 pm 16:52 Partly Cloudy 69 20.6 53 11.7 57 57 E 13 20 30.18 1022 10 16 0.00 0.00
5:52 pm 17:52 Partly Cloudy 66 18.9 53 11.7 63 63 E 16 26 30.19 1022 10 16 0.00 0.00
6:52 pm 18:52 Partly Cloudy 63 17.2 52 11.1 68 68 ENE 15 24 30.22 1023 10 16 0.00 0.00
7:52 pm 19:52 Partly Cloudy 62 16.7 51 10.6 67 67 NE 10 17 30.23 1024 10 16 0.00 0.00
8:26 pm 20:26 Mostly Cloudy 62 16.7 52 11.1 70 70 ENE 12 19 30.24 1024 10 16 0.00 0.00
8:52 pm 20:52 Cloudy 62 16.7 51 10.6 67 67 NE 14 22 30.24 1024 10 16 0.00 0.00
9:25 pm 21:25 Cloudy 62 16.7 50 10 65 65 NE 10 17 30.24 1024 10 16 0.00 0.00
9:52 pm 21:52 Cloudy 62 16.7 51 10.6 67 67 ENE 15 24 30.24 1024 10 16 0.00 0.00
10:05 pm 22:05 Cloudy 61 16.1 50 10 67 67 NE 13 20 30.25 1024 10 16 0.00 0.00
10:52 pm 22:52 Cloudy 60 15.6 50 10 70 70 NE 14 22 30.25 1025 10 16 0.00 0.00
11:52 pm 23:52 Cloudy 60 15.6 49 9.4 67 67 NE 13 20 30.26 1025 10 16 0.00 0.00

Powered by AerisWeather